Year,Month,Day,Hour,Minute,Value (Times are PST for temperature in C)
2016,03,16,08,16,3.30
2016,03,16,08,17,3.30
2016,03,16,08,18,3.30
2016,03,16,08,19,3.30
2016,03,16,08,20,3.30
2016,03,16,08,21,3.30
2016,03,16,08,22,3.30
2016,03,16,08,23,3.30
2016,03,16,08,24,3.30
2016,03,16,08,25,3.30
2016,03,16,08,26,3.30
2016,03,16,08,27,3.30
2016,03,16,08,28,3.30
2016,03,16,08,29,3.30
2016,03,16,08,30,3.30
2016,03,16,09,02,4.40
2016,03,16,09,03,4.40
2016,03,16,09,04,4.40
2016,03,16,09,05,4.50
2016,03,16,09,06,4.50
2016,03,16,09,07,4.60
2016,03,16,09,08,4.70
2016,03,16,09,09,4.70
2016,03,16,09,10,4.80
2016,03,16,09,11,4.80
2016,03,16,09,12,4.90
2016,03,16,09,13,5.00
2016,03,16,09,14,5.10
2016,03,16,09,15,5.20
2016,03,16,09,16,5.30
2016,03,16,09,17,5.40
2016,03,16,09,18,5.60
2016,03,16,09,19,5.70
2016,03,16,09,20,5.80
2016,03,16,09,21,5.90
2016,03,16,09,22,6.00
2016,03,16,09,23,6.10
2016,03,16,09,24,6.20
2016,03,16,09,25,6.20
2016,03,16,09,26,6.30
2016,03,16,09,27,6.40
2016,03,16,09,28,6.40
2016,03,16,09,29,6.50
2016,03,16,09,30,6.60
2016,03,16,09,31,6.60
2016,03,16,09,32,6.60
2016,03,16,09,33,6.70
2016,03,16,09,34,6.80
2016,03,16,09,35,6.80
2016,03,16,09,36,6.80
2016,03,16,09,37,6.90
2016,03,16,09,38,6.90
2016,03,16,09,39,6.90
2016,03,16,09,40,6.90
2016,03,16,09,41,7.00
2016,03,16,09,42,7.00
2016,03,16,09,43,7.00
2016,03,16,09,44,7.00
2016,03,16,09,45,7.10
2016,03,16,09,46,7.10
2016,03,16,09,47,7.10
2016,03,16,09,48,7.10
2016,03,16,09,49,7.10
2016,03,16,09,50,7.10
2016,03,16,09,51,7.10
2016,03,16,09,52,7.10
2016,03,16,09,53,7.10
2016,03,16,09,54,7.10
2016,03,16,09,55,7.20
2016,03,16,09,56,7.20
2016,03,16,09,57,7.20
2016,03,16,09,58,7.30
2016,03,16,09,59,7.30
2016,03,16,10,00,7.30
2016,03,16,10,01,7.30
2016,03,16,10,02,7.40
2016,03,16,10,03,7.40
2016,03,16,10,04,7.40
2016,03,16,10,05,7.50
2016,03,16,10,06,7.50
2016,03,16,10,07,7.50
2016,03,16,10,08,7.60
2016,03,16,10,09,7.60
2016,03,16,10,10,7.60
2016,03,16,10,11,7.70
2016,03,16,10,12,7.70
2016,03,16,10,13,7.80
2016,03,16,10,14,7.80
2016,03,16,10,15,7.80
2016,03,16,10,16,7.80
2016,03,16,10,17,7.80
2016,03,16,10,18,7.80
2016,03,16,10,19,7.90
2016,03,16,10,20,7.90
2016,03,16,10,21,7.90
2016,03,16,10,22,8.00
2016,03,16,10,23,8.00
2016,03,16,10,24,7.90
2016,03,16,10,25,7.90
2016,03,16,10,26,7.90
2016,03,16,10,27,7.90
2016,03,16,10,28,7.90
2016,03,16,10,29,7.90
2016,03,16,10,30,7.90
2016,03,16,10,31,7.90
2016,03,16,10,32,8.00
2016,03,16,10,33,8.00
2016,03,16,10,34,8.00
2016,03,16,10,35,8.10
2016,03,16,10,36,8.10
2016,03,16,10,37,8.20
2016,03,16,10,38,8.20
2016,03,16,10,39,8.20
2016,03,16,10,40,8.30
2016,03,16,10,41,8.30
2016,03,16,10,42,8.20
2016,03,16,10,43,8.30
2016,03,16,10,44,8.30
2016,03,16,10,45,8.40
2016,03,16,10,46,8.50
2016,03,16,10,47,8.60
2016,03,16,10,48,8.60
2016,03,16,10,49,8.50
2016,03,16,10,50,8.40
2016,03,16,10,51,8.40
2016,03,16,10,52,8.40
2016,03,16,10,53,8.40
2016,03,16,10,54,8.40
2016,03,16,10,55,8.40
2016,03,16,10,56,8.30
2016,03,16,10,57,8.40
2016,03,16,10,58,8.40
2016,03,16,10,59,8.40
2016,03,16,11,00,8.40
2016,03,16,11,01,8.40
2016,03,16,11,02,8.40
2016,03,16,11,03,8.50
2016,03,16,11,04,8.50
2016,03,16,11,05,8.50
2016,03,16,11,06,8.50
2016,03,16,11,07,8.40
2016,03,16,11,08,8.30
2016,03,16,11,09,8.20
2016,03,16,11,10,8.20
2016,03,16,11,11,8.10
2016,03,16,11,12,8.00
2016,03,16,11,13,7.90
2016,03,16,11,14,7.90
2016,03,16,11,15,7.80
2016,03,16,11,16,7.80
2016,03,16,11,17,7.80
2016,03,16,11,18,7.70
2016,03,16,11,19,7.70
2016,03,16,11,20,7.70
2016,03,16,11,21,7.70
2016,03,16,11,22,7.70
2016,03,16,11,23,7.70
2016,03,16,11,24,7.70
2016,03,16,11,25,7.80
2016,03,16,11,26,7.80
2016,03,16,11,27,7.90
2016,03,16,11,28,7.90
2016,03,16,11,29,8.00
2016,03,16,11,30,8.00
2016,03,16,11,31,8.10
2016,03,16,11,32,8.10
2016,03,16,11,33,8.20
2016,03,16,11,34,8.30
2016,03,16,11,35,8.30
2016,03,16,11,36,8.30
2016,03,16,11,37,8.20
2016,03,16,11,38,8.10
2016,03,16,11,39,8.00
2016,03,16,11,40,7.90
2016,03,16,11,41,7.80
2016,03,16,11,42,7.80
2016,03,16,11,43,7.80
2016,03,16,11,44,7.80
2016,03,16,11,45,7.80
2016,03,16,11,46,7.90
2016,03,16,11,47,7.90
2016,03,16,11,48,8.00
2016,03,16,11,49,8.00
2016,03,16,11,50,8.00
2016,03,16,11,51,8.00
2016,03,16,11,52,7.90
2016,03,16,11,53,7.80
2016,03,16,11,54,7.70
2016,03,16,11,55,7.60
2016,03,16,11,56,7.50
2016,03,16,11,57,7.50
2016,03,16,11,58,7.40
2016,03,16,11,59,7.40
2016,03,16,12,00,7.40
2016,03,16,12,01,7.30
2016,03,16,12,02,7.30
2016,03,16,12,03,7.30
2016,03,16,12,04,7.30
2016,03,16,12,05,7.40
2016,03,16,12,06,7.40
2016,03,16,12,07,7.50
2016,03,16,12,08,7.50
2016,03,16,12,09,7.50
2016,03,16,12,10,7.60
2016,03,16,12,11,7.60
2016,03,16,12,12,7.70
2016,03,16,12,13,7.70
2016,03,16,12,14,7.80
2016,03,16,12,15,7.80
2016,03,16,12,16,7.80
2016,03,16,12,17,7.70
2016,03,16,12,18,7.70
2016,03,16,12,19,7.70
2016,03,16,12,20,7.70
2016,03,16,12,21,7.70
2016,03,16,12,22,7.60
2016,03,16,12,23,7.50
2016,03,16,12,24,7.50
2016,03,16,12,25,7.40
2016,03,16,12,26,7.40
2016,03,16,12,27,7.40
2016,03,16,12,28,7.40
2016,03,16,12,29,7.30
2016,03,16,12,30,7.30
2016,03,16,12,31,7.30
2016,03,16,12,32,7.30
2016,03,16,12,33,7.30
2016,03,16,12,34,7.30
2016,03,16,12,35,7.30
2016,03,16,12,36,7.30
2016,03,16,12,37,7.40
2016,03,16,12,38,7.40
2016,03,16,12,39,7.40
2016,03,16,12,40,7.40
2016,03,16,12,52,7.70
2016,03,16,12,53,7.60
2016,03,16,12,54,7.50
2016,03,16,12,55,7.40
2016,03,16,12,56,7.40
2016,03,16,12,57,7.30
2016,03,16,12,58,7.40
2016,03,16,12,59,7.40
2016,03,16,13,00,7.30
2016,03,16,13,01,7.30
2016,03,16,13,02,7.30
2016,03,16,13,03,7.20
2016,03,16,13,04,7.20
2016,03,16,13,05,7.20
2016,03,16,13,06,7.20
2016,03,16,13,07,7.20
2016,03,16,13,08,7.20
2016,03,16,13,09,7.30
2016,03,16,13,10,7.30
2016,03,16,13,11,7.30
2016,03,16,13,12,7.30
2016,03,16,13,13,7.30
2016,03,16,13,14,7.30
2016,03,16,13,15,7.30
2016,03,16,13,16,7.20
2016,03,16,13,17,7.30
2016,03,16,13,18,7.30
2016,03,16,13,19,7.30
2016,03,16,13,20,7.40
2016,03,16,13,21,7.40
2016,03,16,13,22,7.40
2016,03,16,13,23,7.30
2016,03,16,13,24,7.30
2016,03,16,13,25,7.20
2016,03,16,13,26,7.20
2016,03,16,13,27,7.20
2016,03,16,13,28,7.20
2016,03,16,13,29,7.20
2016,03,16,13,30,7.20
2016,03,16,13,31,7.10
2016,03,16,13,32,7.10
2016,03,16,13,33,7.20
2016,03,16,13,34,7.20
2016,03,16,13,35,7.20
2016,03,16,13,36,7.20
2016,03,16,13,37,7.20
2016,03,16,13,38,7.20
2016,03,16,13,39,7.20
2016,03,16,13,40,7.20
2016,03,16,13,41,7.30
2016,03,16,13,42,7.30
2016,03,16,13,43,7.30
2016,03,16,13,44,7.30
2016,03,16,13,45,7.30
2016,03,16,13,46,7.20
2016,03,16,13,47,7.20
2016,03,16,13,48,7.20
2016,03,16,13,49,7.20
2016,03,16,13,50,7.20
2016,03,16,13,51,7.10
2016,03,16,13,52,7.20
2016,03,16,13,53,7.20
2016,03,16,13,54,7.20
2016,03,16,13,55,7.20
2016,03,16,13,56,7.20
2016,03,16,13,57,7.20
2016,03,16,13,58,7.30
2016,03,16,13,59,7.30
2016,03,16,14,00,7.30
2016,03,16,14,01,7.30
2016,03,16,14,02,7.40
2016,03,16,14,03,7.40
2016,03,16,14,04,7.40
2016,03,16,14,05,7.40
2016,03,16,14,06,7.40
2016,03,16,14,07,7.40
2016,03,16,14,08,7.40
2016,03,16,14,09,7.40
2016,03,16,14,10,7.40
2016,03,16,14,11,7.50
2016,03,16,14,12,7.50
2016,03,16,14,13,7.50
2016,03,16,14,14,7.50
2016,03,16,14,15,7.50
2016,03,16,14,16,7.50
2016,03,16,14,17,7.60
2016,03,16,14,18,7.60
2016,03,16,14,19,7.60
2016,03,16,14,20,7.60
2016,03,16,14,21,7.60
2016,03,16,14,22,7.60
2016,03,16,14,23,7.70
2016,03,16,14,24,7.70
2016,03,16,14,25,7.70
2016,03,16,14,26,7.70
2016,03,16,14,27,7.70
2016,03,16,14,28,7.70
2016,03,16,14,29,7.80
2016,03,16,14,30,7.80
2016,03,16,14,31,7.90
2016,03,16,14,32,7.90
2016,03,16,14,33,8.00
2016,03,16,14,34,8.10
2016,03,16,14,35,8.20
2016,03,16,14,36,8.30
2016,03,16,14,37,8.40
2016,03,16,14,38,8.50
2016,03,16,14,39,8.50
2016,03,16,14,40,8.70
2016,03,16,14,41,8.90
2016,03,16,14,42,9.10
2016,03,16,14,43,9.30
2016,03,16,14,44,9.40
2016,03,16,14,45,9.50
2016,03,16,14,46,9.60
2016,03,16,14,47,9.60
2016,03,16,14,48,9.70
2016,03,16,14,49,9.80
2016,03,16,14,50,9.90
2016,03,16,14,51,10.00
2016,03,16,14,52,10.10
2016,03,16,14,53,10.20
2016,03,16,14,54,10.30
2016,03,16,14,55,10.40
2016,03,16,14,56,10.50
2016,03,16,14,57,10.60
2016,03,16,14,58,10.60
2016,03,16,14,59,10.60
2016,03,16,15,00,10.50
2016,03,16,15,01,10.30
2016,03,16,15,02,10.20
2016,03,16,15,03,10.20
2016,03,16,15,04,10.20
2016,03,16,15,05,10.20
2016,03,16,15,06,10.30
2016,03,16,15,07,10.40
2016,03,16,15,08,10.40
2016,03,16,15,09,10.50
2016,03,16,15,10,10.50
2016,03,16,15,11,10.50
2016,03,16,15,12,10.50
2016,03,16,15,13,10.50
2016,03,16,15,14,10.40
2016,03,16,15,15,10.40
2016,03,16,15,16,10.40
2016,03,16,15,17,10.40
2016,03,16,15,18,10.30
2016,03,16,15,19,10.40
2016,03,16,15,20,10.40
2016,03,16,15,21,10.40
2016,03,16,15,22,10.30
2016,03,16,15,23,10.20
2016,03,16,15,24,10.20
2016,03,16,15,25,10.20
2016,03,16,15,26,10.30
2016,03,16,15,27,10.30
2016,03,16,15,28,10.40
2016,03,16,15,29,10.50
2016,03,16,15,30,10.60
2016,03,16,15,31,10.70
2016,03,16,15,32,10.80
2016,03,16,15,33,10.80
2016,03,16,15,34,10.70
2016,03,16,15,35,10.80
2016,03,16,15,36,10.80
2016,03,16,15,37,10.80
2016,03,16,15,38,10.80
2016,03,16,15,39,10.90
2016,03,16,15,40,10.90
2016,03,16,15,41,11.00
2016,03,16,15,42,11.10
2016,03,16,15,43,11.10
2016,03,16,15,44,11.10
2016,03,16,15,45,11.10
2016,03,16,15,46,11.20
2016,03,16,15,47,11.10
2016,03,16,15,48,11.10
2016,03,16,15,49,11.00
2016,03,16,15,50,10.90
2016,03,16,15,51,10.80
2016,03,16,15,52,10.70
2016,03,16,15,53,10.70
2016,03,16,15,54,10.70
2016,03,16,15,55,10.70
2016,03,16,15,56,10.70
2016,03,16,15,57,10.70
2016,03,16,15,58,10.70
2016,03,16,15,59,10.70
2016,03,16,16,00,10.70
2016,03,16,16,01,10.80
2016,03,16,16,02,10.80
2016,03,16,16,03,10.80
2016,03,16,16,04,10.80
2016,03,16,16,05,10.80
2016,03,16,16,06,10.80
2016,03,16,16,07,10.80
2016,03,16,16,08,10.80
2016,03,16,16,09,10.80
2016,03,16,16,10,10.80
2016,03,16,16,11,10.80
2016,03,16,16,12,10.80
2016,03,16,16,13,10.80
2016,03,16,16,14,10.80
2016,03,16,16,15,10.80
2016,03,16,16,16,10.70
2016,03,16,16,17,10.70
2016,03,16,16,18,10.70
2016,03,16,16,19,10.70
2016,03,16,16,20,10.70
2016,03,16,16,21,10.60
2016,03,16,16,22,10.60
2016,03,16,16,23,10.60
2016,03,16,16,24,10.50
2016,03,16,16,25,10.50
2016,03,16,16,26,10.60
2016,03,16,16,27,10.60
2016,03,16,16,28,10.70
2016,03,16,16,29,10.70
2016,03,16,16,30,10.80
2016,03,16,16,31,10.80
2016,03,16,16,32,10.80
2016,03,16,16,33,10.80
2016,03,16,16,34,10.80
2016,03,16,16,35,10.90
2016,03,16,16,36,10.90
2016,03,16,16,37,10.90
2016,03,16,16,38,10.80
2016,03,16,16,39,10.80
2016,03,16,16,40,10.70
2016,03,16,16,41,10.60
2016,03,16,16,42,10.50
2016,03,16,16,43,10.20
2016,03,16,16,44,10.10
2016,03,16,16,45,10.00
2016,03,16,16,46,9.80
2016,03,16,16,47,9.70
2016,03,16,16,48,9.60
2016,03,16,16,49,9.50
2016,03,16,16,50,9.50
2016,03,16,16,51,9.50
2016,03,16,16,52,9.60
2016,03,16,16,53,9.60
2016,03,16,16,54,9.50
2016,03,16,16,55,9.50
2016,03,16,16,56,9.60
2016,03,16,16,57,9.60
2016,03,16,16,58,9.50
2016,03,16,16,59,9.50
2016,03,16,17,00,9.40
2016,03,16,17,01,9.40
2016,03,16,17,02,9.30
2016,03,16,17,03,9.30
2016,03,16,17,04,9.20
2016,03,16,17,05,9.10
2016,03,16,17,06,9.00
2016,03,16,17,07,9.00
2016,03,16,17,08,9.00
2016,03,16,17,09,9.00
2016,03,16,17,10,9.00
2016,03,16,17,11,8.90
2016,03,16,17,12,8.90
2016,03,16,17,13,8.90
2016,03,16,17,14,8.90
2016,03,16,17,15,8.90
2016,03,16,17,16,8.80
2016,03,16,17,17,8.80
2016,03,16,17,18,8.80
2016,03,16,17,19,8.70
2016,03,16,17,20,8.70
2016,03,16,17,21,8.70
2016,03,16,17,22,8.70
2016,03,16,17,23,8.70
2016,03,16,17,24,8.70
2016,03,16,17,25,8.70
2016,03,16,17,26,8.70
2016,03,16,17,27,8.70
2016,03,16,17,28,8.70
2016,03,16,17,29,8.70
2016,03,16,17,30,8.70
2016,03,16,17,31,8.70
2016,03,16,17,32,8.70
2016,03,16,17,33,8.70
2016,03,16,17,34,8.70
2016,03,16,17,35,8.70
2016,03,16,17,36,8.70
2016,03,16,17,37,8.70
2016,03,16,17,38,8.70
2016,03,16,17,39,8.70
2016,03,16,17,40,8.60
2016,03,16,17,41,8.60
2016,03,16,17,42,8.50
2016,03,16,17,43,8.40
2016,03,16,17,44,8.40
2016,03,16,17,45,8.30
2016,03,16,17,46,8.30
2016,03,16,17,47,8.30
2016,03,16,17,48,8.30
2016,03,16,17,49,8.30
2016,03,16,17,50,8.30
2016,03,16,17,51,8.20
2016,03,16,17,52,8.20
2016,03,16,17,53,8.20
2016,03,16,17,54,8.10
2016,03,16,17,55,8.10
2016,03,16,17,56,8.10
2016,03,16,17,57,8.10
2016,03,16,17,58,8.00
2016,03,16,17,59,8.00
2016,03,16,18,00,8.00
2016,03,16,18,01,7.90
2016,03,16,18,02,7.90
2016,03,16,18,03,7.90
2016,03,16,18,04,7.90
2016,03,16,18,05,7.80
2016,03,16,18,06,7.80
2016,03,16,18,07,7.80
2016,03,16,18,08,7.80
2016,03,16,18,09,7.80
2016,03,16,18,10,7.80
2016,03,16,18,11,7.80
2016,03,16,18,12,7.80
2016,03,16,18,13,7.80
2016,03,16,18,14,7.80
2016,03,16,18,15,7.80
2016,03,16,18,16,7.80
2016,03,16,18,17,7.80
2016,03,16,18,18,7.80
2016,03,16,18,19,7.80
2016,03,16,18,20,7.80
2016,03,16,18,21,7.80
2016,03,16,18,22,7.70
2016,03,16,18,23,7.70
2016,03,16,18,24,7.70
2016,03,16,18,25,7.70
2016,03,16,18,26,7.70
2016,03,16,18,27,7.70
2016,03,16,18,28,7.70
2016,03,16,18,29,7.70
2016,03,16,18,30,7.70
2016,03,16,18,31,7.70
2016,03,16,18,32,7.70
2016,03,16,18,33,7.70
2016,03,16,18,34,7.70
2016,03,16,18,35,7.70
2016,03,16,18,36,7.70
2016,03,16,18,37,7.70
2016,03,16,18,38,7.60
2016,03,16,18,39,7.60
2016,03,16,18,40,7.60
2016,03,16,18,41,7.60
2016,03,16,18,42,7.60
2016,03,16,18,43,7.60
2016,03,16,18,44,7.60
2016,03,16,18,45,7.60
2016,03,16,18,46,7.60
2016,03,16,18,47,7.60
2016,03,16,18,48,7.60
2016,03,16,18,49,7.60
2016,03,16,18,50,7.60
2016,03,16,18,51,7.60
2016,03,16,18,52,7.60
2016,03,16,18,53,7.60
2016,03,16,18,54,7.50
2016,03,16,18,55,7.50
2016,03,16,18,56,7.50
2016,03,16,18,57,7.50
2016,03,16,18,58,7.50
2016,03,16,18,59,7.50
2016,03,16,19,00,7.40
2016,03,16,19,01,7.40
2016,03,16,19,02,7.40
2016,03,16,19,03,7.40
2016,03,16,19,04,7.40
2016,03,16,19,05,7.40
2016,03,16,19,06,7.40
2016,03,16,19,07,7.40
2016,03,16,19,08,7.30
2016,03,16,19,09,7.30
2016,03,16,19,10,7.30
2016,03,16,19,11,7.30
2016,03,16,19,12,7.30
2016,03,16,19,13,7.30
2016,03,16,19,14,7.30
2016,03,16,19,15,7.30
2016,03,16,19,16,7.20
2016,03,16,19,17,7.20
2016,03,16,19,18,7.20
2016,03,16,19,19,7.20
2016,03,16,19,20,7.10
2016,03,16,19,21,7.10
2016,03,16,19,22,7.10
2016,03,16,19,23,7.10
2016,03,16,19,24,7.00
2016,03,16,19,25,7.00
2016,03,16,19,26,7.00
2016,03,16,19,27,6.90
2016,03,16,19,28,6.90
2016,03,16,19,29,6.90
2016,03,16,19,30,6.80
2016,03,16,19,31,6.80
2016,03,16,19,32,6.70
2016,03,16,19,33,6.70
2016,03,16,19,34,6.70
2016,03,16,19,35,6.60
2016,03,16,19,36,6.60
2016,03,16,19,37,6.60
2016,03,16,19,38,6.50
2016,03,16,19,39,6.50
2016,03,16,19,40,6.40
2016,03,16,19,41,6.40
2016,03,16,19,42,6.30
2016,03,16,19,43,6.30
2016,03,16,19,44,6.30
2016,03,16,19,45,6.30
2016,03,16,19,46,6.30
2016,03,16,19,47,6.30
2016,03,16,19,48,6.20
2016,03,16,19,49,6.20
2016,03,16,19,50,6.20
2016,03,16,19,51,6.20
2016,03,16,19,52,6.20
2016,03,16,19,53,6.20
2016,03,16,19,54,6.10
2016,03,16,19,55,6.10
2016,03,16,19,56,6.10
2016,03,16,19,57,6.00
2016,03,16,19,58,6.00
2016,03,16,19,59,5.90
2016,03,16,20,00,5.90
2016,03,16,20,01,5.90
2016,03,16,20,02,5.80
2016,03,16,20,03,5.80
2016,03,16,20,04,5.80
2016,03,16,20,05,5.70
2016,03,16,20,06,5.70
2016,03,16,20,07,5.70
2016,03,16,20,08,5.70
2016,03,16,20,09,5.60
2016,03,16,20,10,5.60
2016,03,16,20,11,5.60
2016,03,16,20,12,5.60
2016,03,16,20,13,5.50
2016,03,16,20,14,5.50
2016,03,16,20,15,5.40
2016,03,16,20,16,5.40
2016,03,16,20,17,5.40
2016,03,16,20,18,5.40
2016,03,16,20,19,5.40
2016,03,16,20,20,5.30
2016,03,16,20,21,5.30
2016,03,16,20,22,5.30
2016,03,16,20,23,5.30
2016,03,16,20,24,5.30
2016,03,16,20,25,5.30
2016,03,16,20,26,5.30
2016,03,16,20,27,5.30
2016,03,16,20,28,5.20
2016,03,16,20,29,5.20
2016,03,16,20,30,5.20
2016,03,16,20,31,5.20
2016,03,16,20,32,5.10
2016,03,16,20,33,5.10
2016,03,16,20,34,5.10
2016,03,16,20,35,5.10
2016,03,16,20,36,5.10
2016,03,16,20,37,5.00
2016,03,16,20,38,5.00
2016,03,16,20,39,5.00
2016,03,16,20,40,5.00
2016,03,16,20,41,5.00
2016,03,16,20,42,4.90
2016,03,16,20,43,4.90
2016,03,16,20,44,4.90
2016,03,16,20,45,4.90
2016,03,16,20,46,4.90
2016,03,16,20,47,4.90
2016,03,16,20,48,4.90
2016,03,16,20,49,4.80
2016,03,16,20,50,4.80
2016,03,16,20,51,4.70
2016,03,16,20,52,4.60
2016,03,16,20,53,4.60
2016,03,16,20,54,4.50
2016,03,16,20,55,4.50
2016,03,16,20,56,4.40
2016,03,16,20,57,4.40
2016,03,16,20,58,4.40
2016,03,16,20,59,4.40
2016,03,16,21,00,4.30
2016,03,16,21,01,4.30
2016,03,16,21,02,4.30
2016,03,16,21,03,4.30
2016,03,16,21,04,4.30
2016,03,16,21,05,4.30
2016,03,16,21,06,4.30
2016,03,16,21,07,4.30
2016,03,16,21,08,4.30
2016,03,16,21,09,4.20
2016,03,16,21,10,4.20
2016,03,16,21,11,4.20
2016,03,16,21,12,4.20
2016,03,16,21,13,4.20
2016,03,16,21,14,4.10
2016,03,16,21,15,4.10
2016,03,16,21,16,4.10
2016,03,16,21,17,4.10
2016,03,16,21,18,4.10
2016,03,16,21,19,4.10
2016,03,16,21,20,4.10
2016,03,16,21,21,4.10
2016,03,16,21,22,4.10
2016,03,16,21,23,4.10
2016,03,16,21,24,4.10
2016,03,16,21,25,4.10
2016,03,16,21,26,4.10
2016,03,16,21,27,4.10
2016,03,16,21,28,4.10
2016,03,16,21,29,4.10
2016,03,16,21,30,4.10
2016,03,16,21,31,4.10
2016,03,16,21,32,4.10
2016,03,16,21,33,4.10
2016,03,16,21,34,4.00
2016,03,16,21,35,3.90
2016,03,16,21,36,3.80
2016,03,16,21,37,3.80
2016,03,16,21,38,3.80
2016,03,16,21,39,3.80
2016,03,16,21,40,3.80
2016,03,16,21,41,3.80
2016,03,16,21,42,3.80
2016,03,16,21,43,3.80
2016,03,16,21,44,3.80
2016,03,16,21,45,3.80
2016,03,16,21,46,3.80
2016,03,16,21,47,3.80
2016,03,16,21,48,3.80
2016,03,16,21,49,3.80
2016,03,16,21,50,3.80
2016,03,16,21,51,3.80
2016,03,16,21,52,3.80
2016,03,16,21,53,3.80
2016,03,16,21,54,3.80
2016,03,16,21,55,3.80
2016,03,16,21,56,3.80
2016,03,16,21,57,3.80
2016,03,16,21,58,3.80
2016,03,16,21,59,3.80
2016,03,16,22,00,3.80
2016,03,16,22,01,3.80
2016,03,16,22,02,3.80
2016,03,16,22,03,3.70
2016,03,16,22,04,3.70
2016,03,16,22,05,3.60
2016,03,16,22,06,3.60
2016,03,16,22,07,3.60
2016,03,16,22,08,3.50
2016,03,16,22,09,3.50
2016,03,16,22,10,3.50
2016,03,16,22,11,3.50
2016,03,16,22,12,3.50
2016,03,16,22,13,3.50
2016,03,16,22,14,3.50
2016,03,16,22,15,3.50
2016,03,16,22,16,3.50
2016,03,16,22,17,3.50
2016,03,16,22,18,3.50
2016,03,16,22,19,3.50
2016,03,16,22,20,3.40
2016,03,16,22,21,3.40
2016,03,16,22,22,3.40
2016,03,16,22,23,3.40
2016,03,16,22,24,3.30
2016,03,16,22,25,3.30
2016,03,16,22,26,3.30
2016,03,16,22,27,3.30
2016,03,16,22,28,3.30
2016,03,16,22,29,3.30
2016,03,16,22,30,3.30
2016,03,16,22,31,3.30
2016,03,16,22,32,3.30
2016,03,16,22,33,3.30
2016,03,16,22,34,3.30
2016,03,16,22,35,3.30
2016,03,16,22,36,3.30
2016,03,16,22,37,3.30
2016,03,16,22,38,3.30
2016,03,16,22,39,3.30
2016,03,16,22,40,3.30
2016,03,16,22,41,3.30
2016,03,16,22,42,3.30
2016,03,16,22,43,3.30
2016,03,16,22,44,3.30
2016,03,16,22,45,3.30
2016,03,16,22,46,3.20
2016,03,16,22,47,3.20
2016,03,16,22,48,3.20
2016,03,16,22,49,3.20
2016,03,16,22,50,3.20
2016,03,16,22,51,3.20
2016,03,16,22,52,3.20
2016,03,16,22,53,3.20
2016,03,16,22,54,3.20
2016,03,16,22,55,3.20
2016,03,16,22,56,3.20
2016,03,16,22,57,3.20
2016,03,16,22,58,3.20
2016,03,16,22,59,3.20
2016,03,16,23,00,3.20
2016,03,16,23,01,3.20
2016,03,16,23,02,3.20
2016,03,16,23,03,3.20
2016,03,16,23,04,3.20
2016,03,16,23,05,3.20
2016,03,16,23,06,3.20
2016,03,16,23,07,3.20
2016,03,16,23,08,3.20
2016,03,16,23,09,3.10
2016,03,16,23,10,3.10
2016,03,16,23,11,3.10
2016,03,16,23,12,3.10
2016,03,16,23,13,3.10
2016,03,16,23,14,3.10
2016,03,16,23,15,3.10
2016,03,16,23,16,3.10
2016,03,16,23,17,3.00
2016,03,16,23,18,3.00
2016,03,16,23,19,3.00
2016,03,16,23,20,3.00
2016,03,16,23,21,3.00
2016,03,16,23,22,3.00
2016,03,16,23,23,3.00
2016,03,16,23,24,3.00
2016,03,16,23,25,3.00
2016,03,16,23,26,3.00
2016,03,16,23,27,3.00
2016,03,16,23,28,3.10
2016,03,16,23,29,3.10
2016,03,16,23,30,3.10
2016,03,16,23,31,3.10
2016,03,16,23,32,3.10
2016,03,16,23,33,3.20
2016,03,16,23,34,3.20
2016,03,16,23,35,3.20
2016,03,16,23,36,3.20
2016,03,16,23,37,3.20
2016,03,16,23,38,3.20
2016,03,16,23,39,3.20
2016,03,16,23,40,3.20
2016,03,16,23,41,3.10
2016,03,16,23,42,3.10
2016,03,16,23,43,3.10
2016,03,16,23,44,3.10
2016,03,16,23,45,3.10
2016,03,16,23,46,3.10
2016,03,16,23,47,3.10
2016,03,16,23,48,3.10
2016,03,16,23,49,3.00
2016,03,16,23,50,3.00
2016,03,16,23,51,3.00
2016,03,16,23,52,3.00
2016,03,16,23,53,3.00
2016,03,16,23,54,3.00
2016,03,16,23,55,3.00
2016,03,16,23,56,3.00
2016,03,16,23,57,3.00
2016,03,16,23,58,3.00
2016,03,16,23,59,3.00
